Time,TemperatureF,DewpointF,PressureIn,WindDirection,WindDirectionDegrees,WindSpeedMPH,WindSpeedGustMPH,Humidity,HourlyPrecipIn,Conditions,Clouds,dailyrainin,SolarRadiationWatts/m^2,SoftwareType,DateUTC
2013-05-13 00:03:00,52.4,44.0,30.12,South,174,0.0,0.0,72,0.00,,,0.00,0,weatherlink.com 1.10,2013-05-13 05:03:00,
2013-05-13 00:19:00,51.9,43.0,30.12,South,174,0.0,0.0,72,0.00,,,0.00,0,weatherlink.com 1.10,2013-05-13 05:19:00,
2013-05-13 00:35:00,51.6,43.0,30.12,South,174,0.0,0.0,73,0.00,,,0.00,0,weatherlink.com 1.10,2013-05-13 05:35:00,
2013-05-13 00:52:00,51.5,43.0,30.11,South,174,0.0,2.0,74,0.00,,,0.00,0,weatherlink.com 1.10,2013-05-13 05:52:00,
2013-05-13 01:08:00,51.7,44.0,30.11,South,174,0.0,2.0,74,0.00,,,0.00,0,weatherlink.com 1.10,2013-05-13 06:08:00,
2013-05-13 01:24:00,51.9,44.0,30.11,South,174,0.0,5.0,74,0.00,,,0.00,0,weatherlink.com 1.10,2013-05-13 06:24:00,
2013-05-13 01:40:00,51.5,43.0,30.10,South,174,0.0,0.0,74,0.00,,,0.00,0,weatherlink.com 1.10,2013-05-13 06:40:00,
2013-05-13 01:57:00,51.4,44.0,30.09,South,174,0.0,1.0,75,0.00,,,0.00,0,weatherlink.com 1.10,2013-05-13 06:57:00,
2013-05-13 02:14:00,51.2,44.0,30.09,South,174,0.0,4.0,76,0.00,,,0.00,0,weatherlink.com 1.10,2013-05-13 07:14:00,
2013-05-13 02:30:00,51.0,44.0,30.09,South,174,0.0,3.0,76,0.00,,,0.00,0,weatherlink.com 1.10,2013-05-13 07:30:00,
2013-05-13 02:46:00,50.9,44.0,30.08,South,174,0.0,1.0,76,0.00,,,0.00,0,weatherlink.com 1.10,2013-05-13 07:46:00,
2013-05-13 03:03:00,50.7,43.0,30.08,South,174,0.0,0.0,76,0.00,,,0.00,0,weatherlink.com 1.10,2013-05-13 08:03:00,
2013-05-13 03:19:00,50.4,43.0,30.09,South,174,0.0,0.0,77,0.00,,,0.00,0,weatherlink.com 1.10,2013-05-13 08:19:00,
2013-05-13 03:35:00,50.2,44.0,30.08,South,174,0.0,0.0,78,0.00,,,0.00,0,weatherlink.com 1.10,2013-05-13 08:35:00,
2013-05-13 03:52:00,49.8,43.0,30.08,South,174,0.0,0.0,78,0.00,,,0.00,0,weatherlink.com 1.10,2013-05-13 08:52:00,
2013-05-13 04:09:00,49.7,43.0,30.08,South,174,0.0,2.0,79,0.00,,,0.00,0,weatherlink.com 1.10,2013-05-13 09:09:00,
2013-05-13 04:25:00,50.0,44.0,30.08,South,174,0.0,0.0,79,0.00,,,0.00,0,weatherlink.com 1.10,2013-05-13 09:25:00,
2013-05-13 04:41:00,50.1,44.0,30.08,South,174,0.0,0.0,78,0.00,,,0.00,0,weatherlink.com 1.10,2013-05-13 09:41:00,
2013-05-13 04:58:00,49.9,43.0,30.07,South,174,0.0,0.0,78,0.00,,,0.00,0,weatherlink.com 1.10,2013-05-13 09:58:00,
2013-05-13 05:14:00,49.7,43.0,30.07,South,174,0.0,0.0,78,0.00,,,0.00,0,weatherlink.com 1.10,2013-05-13 10:14:00,
2013-05-13 05:30:00,49.4,43.0,30.07,South,174,0.0,0.0,78,0.00,,,0.00,0,weatherlink.com 1.10,2013-05-13 10:30:00,
2013-05-13 05:47:00,48.8,43.0,30.06,South,174,0.0,0.0,79,0.00,,,0.00,0,weatherlink.com 1.10,2013-05-13 10:47:00,
2013-05-13 06:04:00,48.3,42.0,30.07,South,174,0.0,0.0,80,0.00,,,0.00,0,weatherlink.com 1.10,2013-05-13 11:04:00,
2013-05-13 06:20:00,48.0,42.0,30.06,South,174,0.0,0.0,81,0.00,,,0.00,5,weatherlink.com 1.10,2013-05-13 11:20:00,
2013-05-13 06:36:00,48.5,43.0,30.06,South,174,0.0,4.0,80,0.00,,,0.00,12,weatherlink.com 1.10,2013-05-13 11:36:00,
2013-05-13 06:53:00,49.1,43.0,30.06,South,174,0.0,0.0,79,0.00,,,0.00,35,weatherlink.com 1.10,2013-05-13 11:53:00,
2013-05-13 07:09:00,49.9,43.0,30.06,South,174,0.0,1.0,78,0.00,,,0.00,84,weatherlink.com 1.10,2013-05-13 12:09:00,
2013-05-13 07:26:00,51.8,44.0,30.06,South,174,0.0,1.0,75,0.00,,,0.00,97,weatherlink.com 1.10,2013-05-13 12:26:00,
2013-05-13 07:43:00,53.8,45.0,30.07,South,174,0.0,6.0,72,0.00,,,0.00,127,weatherlink.com 1.10,2013-05-13 12:43:00,
2013-05-13 07:59:00,55.4,45.0,30.07,South,174,0.0,5.0,68,0.00,,,0.00,40,weatherlink.com 1.10,2013-05-13 12:59:00,
2013-05-13 08:15:00,56.8,46.0,30.08,South,174,0.0,6.0,66,0.00,,,0.00,44,weatherlink.com 1.10,2013-05-13 13:15:00,
2013-05-13 08:33:00,57.9,46.0,30.07,South,169,0.0,7.0,65,0.00,,,0.00,98,weatherlink.com 1.10,2013-05-13 13:33:00,
2013-05-13 08:49:00,58.9,47.0,30.07,SSE,159,0.0,9.0,64,0.00,,,0.00,62,weatherlink.com 1.10,2013-05-13 13:49:00,
2013-05-13 10:14:00,64.5,49.0,30.05,SSE,154,0.0,5.0,58,0.00,,,0.00,220,weatherlink.com 1.10,2013-05-13 15:14:00,
2013-05-13 10:30:00,65.3,50.0,30.05,SSE,153,0.0,2.0,58,0.00,,,0.00,214,weatherlink.com 1.10,2013-05-13 15:30:00,
2013-05-13 10:47:00,66.3,50.0,30.04,SSE,153,0.0,1.0,56,0.00,,,0.00,445,weatherlink.com 1.10,2013-05-13 15:47:00,
2013-05-13 11:04:00,67.8,52.0,30.04,SSE,153,0.0,2.0,57,0.00,,,0.00,809,weatherlink.com 1.10,2013-05-13 16:04:00,
2013-05-13 11:20:00,68.8,52.0,30.03,SSE,153,0.0,2.0,55,0.00,,,0.00,842,weatherlink.com 1.10,2013-05-13 16:20:00,
2013-05-13 11:37:00,69.3,53.0,30.03,SSE,152,0.0,6.0,57,0.00,,,0.00,872,weatherlink.com 1.10,2013-05-13 16:37:00,
2013-05-13 11:53:00,70.4,52.0,30.02,SSE,152,0.0,6.0,52,0.00,,,0.00,898,weatherlink.com 1.10,2013-05-13 16:53:00,
2013-05-13 12:10:00,71.5,52.0,30.02,SSE,152,0.0,6.0,51,0.00,,,0.00,921,weatherlink.com 1.10,2013-05-13 17:10:00,
2013-05-13 12:26:00,72.9,55.0,30.02,SSE,152,0.0,4.0,54,0.00,,,0.00,921,weatherlink.com 1.10,2013-05-13 17:26:00,
2013-05-13 12:42:00,74.1,55.0,30.02,SSE,153,0.0,6.0,51,0.00,,,0.00,953,weatherlink.com 1.10,2013-05-13 17:42:00,
2013-05-13 12:58:00,74.3,54.0,30.02,SSE,153,3.0,6.0,49,0.00,,,0.00,962,weatherlink.com 1.10,2013-05-13 17:58:00,
2013-05-13 13:15:00,75.0,55.0,30.01,SSE,153,0.0,8.0,50,0.00,,,0.00,969,weatherlink.com 1.10,2013-05-13 18:15:00,
2013-05-13 13:32:00,75.7,56.0,30.00,SSE,153,0.0,7.0,51,0.00,,,0.00,958,weatherlink.com 1.10,2013-05-13 18:32:00,
2013-05-13 13:48:00,76.8,56.0,30.00,SSE,155,0.0,8.0,48,0.00,,,0.00,946,weatherlink.com 1.10,2013-05-13 18:48:00,
2013-05-13 14:04:00,76.9,56.0,30.00,SSE,154,0.0,11.0,48,0.00,,,0.00,969,weatherlink.com 1.10,2013-05-13 19:04:00,
2013-05-13 15:53:00,79.6,57.0,29.96,SE,138,0.0,12.0,46,0.00,,,0.00,759,weatherlink.com 1.10,2013-05-13 20:53:00,
2013-05-13 16:09:00,79.3,58.0,29.96,SSE,159,4.0,13.0,49,0.00,,,0.00,745,weatherlink.com 1.10,2013-05-13 21:09:00,
2013-05-13 16:25:00,79.3,57.0,29.95,South,180,5.0,11.0,47,0.00,,,0.00,605,weatherlink.com 1.10,2013-05-13 21:25:00,
2013-05-13 16:42:00,79.1,56.0,29.95,South,174,3.0,13.0,45,0.00,,,0.00,561,weatherlink.com 1.10,2013-05-13 21:42:00,
2013-05-13 16:58:00,78.7,58.0,29.94,South,170,6.0,12.0,50,0.00,,,0.00,621,weatherlink.com 1.10,2013-05-13 21:58:00,
2013-05-13 17:14:00,78.7,56.0,29.94,SSE,151,1.0,13.0,45,0.00,,,0.00,526,weatherlink.com 1.10,2013-05-13 22:14:00,
2013-05-13 17:30:00,78.5,57.0,29.93,South,190,3.0,14.0,48,0.00,,,0.00,512,weatherlink.com 1.10,2013-05-13 22:30:00,
2013-05-13 17:48:00,79.3,58.0,29.93,SSE,162,2.0,10.0,48,0.00,,,0.00,439,weatherlink.com 1.10,2013-05-13 22:48:00,
2013-05-13 18:04:00,78.5,57.0,29.92,SSW,211,4.0,12.0,48,0.00,,,0.00,418,weatherlink.com 1.10,2013-05-13 23:04:00,
2013-05-13 18:20:00,78.5,57.0,29.91,SSE,159,4.0,17.0,48,0.00,,,0.00,380,weatherlink.com 1.10,2013-05-13 23:20:00,
2013-05-13 18:36:00,78.1,58.0,29.91,SSE,167,0.0,14.0,50,0.00,,,0.00,315,weatherlink.com 1.10,2013-05-13 23:36:00,
2013-05-13 18:53:00,77.7,58.0,29.91,SSE,165,4.0,12.0,50,0.00,,,0.00,216,weatherlink.com 1.10,2013-05-13 23:53:00,
2013-05-13 19:09:00,76.8,58.0,29.90,SSE,165,0.0,10.0,52,0.00,,,0.00,153,weatherlink.com 1.10,2013-05-14 00:09:00,
2013-05-13 19:25:00,76.1,58.0,29.90,SSE,161,0.0,7.0,54,0.00,,,0.00,105,weatherlink.com 1.10,2013-05-14 00:25:00,
2013-05-13 19:42:00,75.0,58.0,29.89,SSE,167,4.0,7.0,56,0.00,,,0.00,58,weatherlink.com 1.10,2013-05-14 00:42:00,
2013-05-13 19:58:00,74.4,58.0,29.89,South,171,0.0,8.0,57,0.00,,,0.00,26,weatherlink.com 1.10,2013-05-14 00:58:00,
2013-05-13 20:14:00,73.8,58.0,29.89,SSE,165,0.0,6.0,58,0.00,,,0.00,9,weatherlink.com 1.10,2013-05-14 01:14:00,
2013-05-13 20:30:00,73.1,58.0,29.89,SSE,165,0.0,5.0,59,0.00,,,0.00,0,weatherlink.com 1.10,2013-05-14 01:30:00,
2013-05-13 20:46:00,72.4,58.0,29.89,SSE,165,0.0,5.0,61,0.00,,,0.00,0,weatherlink.com 1.10,2013-05-14 01:46:00,
2013-05-13 21:03:00,71.6,58.0,29.89,SSE,165,0.0,5.0,63,0.00,,,0.00,0,weatherlink.com 1.10,2013-05-14 02:03:00,
2013-05-13 21:19:00,71.0,59.0,29.89,SSE,165,0.0,2.0,65,0.00,,,0.00,0,weatherlink.com 1.10,2013-05-14 02:19:00,
2013-05-13 21:35:00,70.2,59.0,29.89,SSE,165,0.0,2.0,67,0.00,,,0.00,0,weatherlink.com 1.10,2013-05-14 02:35:00,
2013-05-13 21:51:00,69.6,59.0,29.89,SSE,165,0.0,2.0,68,0.00,,,0.00,0,weatherlink.com 1.10,2013-05-14 02:51:00,
2013-05-13 22:07:00,69.1,58.0,29.89,SSE,165,0.0,7.0,69,0.00,,,0.00,0,weatherlink.com 1.10,2013-05-14 03:07:00,
2013-05-13 22:23:00,68.8,58.0,29.89,SSE,165,0.0,6.0,69,0.00,,,0.00,0,weatherlink.com 1.10,2013-05-14 03:23:00,
2013-05-13 22:39:00,68.5,59.0,29.88,SSE,165,0.0,8.0,71,0.00,,,0.00,0,weatherlink.com 1.10,2013-05-14 03:39:00,
2013-05-13 22:55:00,68.3,59.0,29.87,SSE,168,7.0,11.0,71,0.00,,,0.00,0,weatherlink.com 1.10,2013-05-14 03:55:00,
2013-05-13 23:12:00,68.3,59.0,29.87,South,173,3.0,10.0,71,0.00,,,0.00,0,weatherlink.com 1.10,2013-05-14 04:12:00,
2013-05-13 23:28:00,68.5,58.0,29.87,South,187,6.0,12.0,70,0.00,,,0.00,0,weatherlink.com 1.10,2013-05-14 04:28:00,
2013-05-13 23:44:00,68.6,58.0,29.86,SSW,199,9.0,12.0,69,0.00,,,0.00,0,weatherlink.com 1.10,2013-05-14 04:44:00,